TimeHST,TemperatureF,Dew PointF,Humidity,Sea Level PressureIn,VisibilityMPH,Wind Direction,Wind SpeedMPH,Gust SpeedMPH,PrecipitationIn,Events,Conditions,WindDirDegrees,DateUTC
12:56 AM,43.7,40.5,88,30.29,10.0,ESE,5.8,-,N/A,,Clear,120,2013-12-17 10:56:00
1:56 AM,43.9,40.6,88,30.28,10.0,ESE,4.6,-,N/A,,Clear,110,2013-12-17 11:56:00
2:56 AM,43.2,39.7,88,30.27,11.0,East,4.6,-,N/A,,Clear,100,2013-12-17 12:56:00
3:56 AM,41.7,37.4,85,30.27,12.0,SE,4.6,-,N/A,,Clear,130,2013-12-17 13:56:00
4:56 AM,42.6,36.7,79,30.28,12.0,ESE,5.8,-,N/A,,Clear,110,2013-12-17 14:56:00
5:56 AM,41.9,36.7,82,30.29,12.0,ESE,5.8,-,N/A,,Clear,120,2013-12-17 15:56:00
6:56 AM,41.5,35.6,79,30.30,12.0,ESE,5.8,-,N/A,,Clear,110,2013-12-17 16:56:00
7:56 AM,51.6,38.3,60,30.32,10.0,ESE,2.3,-,N/A,,Clear,110,2013-12-17 17:56:00
8:56 AM,55.6,34.2,44,30.33,12.0,South,2.3,-,N/A,,Clear,180,2013-12-17 18:56:00
9:56 AM,58.8,36.7,44,30.34,12.0,SW,5.8,-,N/A,,Clear,230,2013-12-17 19:56:00
10:56 AM,61.2,39.4,45,30.32,12.0,SW,8.1,15.0,N/A,,Clear,230,2013-12-17 20:56:00
11:56 AM,63.3,41.5,45,30.29,12.0,WSW,11.5,19.6,N/A,,Clear,250,2013-12-17 21:56:00
12:56 PM,63.1,44.2,50,30.27,12.0,West,11.5,18.4,N/A,,Partly Cloudy,260,2013-12-17 22:56:00
1:56 PM,63.5,45.7,52,30.24,12.0,WSW,11.5,23.0,N/A,,Mostly Cloudy,250,2013-12-17 23:56:00
2:56 PM,62.2,45.0,53,30.24,12.0,West,13.8,20.7,N/A,,Clear,260,2013-12-18 00:56:00
3:56 PM,60.1,47.7,64,30.24,12.0,West,12.7,20.7,N/A,,Partly Cloudy,260,2013-12-18 01:56:00
4:56 PM,55.0,49.8,83,30.25,12.0,WSW,10.4,-,N/A,,Clear,250,2013-12-18 02:56:00
5:41 PM,53.6,50.0,88,30.27,12.0,West,5.8,-,N/A,,Mostly Cloudy,260,2013-12-18 03:41:00
5:46 PM,53.6,50.0,88,30.27,12.0,West,6.9,-,N/A,,Mostly Cloudy,260,2013-12-18 03:46:00
5:51 PM,51.8,50.0,94,30.27,11.0,West,6.9,-,N/A,,Mostly Cloudy,260,2013-12-18 03:51:00
5:56 PM,52.0,49.1,90,30.27,11.0,West,5.8,-,N/A,,Mostly Cloudy,270,2013-12-18 03:56:00
6:01 PM,51.8,48.2,88,30.28,11.0,West,4.6,-,N/A,,Scattered Clouds,260,2013-12-18 04:01:00
6:56 PM,50.5,47.3,89,30.30,12.0,Calm,Calm,-,N/A,,Partly Cloudy,0,2013-12-18 04:56:00
7:56 PM,47.3,43.5,87,30.31,12.0,West,2.3,-,N/A,,Clear,260,2013-12-18 05:56:00
8:56 PM,46.6,42.1,84,30.32,12.0,East,2.3,-,N/A,,Clear,100,2013-12-18 06:56:00
9:56 PM,45.5,39.4,79,30.32,12.0,ESE,3.5,-,N/A,,Clear,120,2013-12-18 07:56:00
10:56 PM,42.8,36.9,80,30.32,12.0,SE,3.5,-,N/A,,Clear,130,2013-12-18 08:56:00
11:56 PM,43.5,37.4,79,30.31,12.0,SE,4.6,-,N/A,,Clear,140,2013-12-18 09:56:00